Location: Mainz-Finthen
(49.9906°N, 8.1713°E)
Time: 00:33:46
(UTC+00:00)

BlueWalker 3 - Pass Details

Date: 30 November 2022
Orbit: 499 x 517 km, 53.2° (Epoch: 26 January)

Event Time Altitude Azimuth Distance (km) Brightness Sun altitude
Rises 18:04:20 0° 278° (W) 2,629 6.9 -24.1°
Reaches altitude 10° 18:06:35 10° 283° (WNW) 1,739 5.6 -24.5°
Enters shadow 18:09:34 42° 318° (NW) 741 2.9 -24.9°
